• In Netherlands
  • List of Countries
  • For 7 days
  • Water Temperature
  • Satellite Maps
  • Weather Map
  • Weather Widgets
  • user-avatar
    Login

    Hourly Weather Hrazdan

    Today, 18 August, Friday

    Time Temperature Precipitation Wind Pressure Humidity
    00:00 +14°C° 0.1 mm 2 mps 613 mmHg 85%
    01:00 +14°C° 0 mm 2 mps 613 mmHg 86%
    02:00 +13°C° 0 mm 2 mps 613 mmHg 86%
    03:00 +13°C° 0 mm 1 mps 613 mmHg 88%
    04:00 +13°C° 0 mm 1 mps 613 mmHg 86%
    05:00 +13°C° 0 mm 1 mps 613 mmHg 84%
    06:00 +13°C° 0 mm 1 mps 613 mmHg 83%
    07:00 +16°C° 0 mm 1 mps 614 mmHg 73%
    08:00 +19°C° 0 mm 1 mps 615 mmHg 63%
    09:00 +22°C° 0 mm 1 mps 616 mmHg 53%
    10:00 +23°C° 0 mm 1 mps 616 mmHg 48%
    11:00 +25°C° 0 mm 2 mps 617 mmHg 44%
    12:00 +26°C° 0 mm 2 mps 617 mmHg 40%
    13:00 +26°C° 0 mm 2 mps 617 mmHg 39%
    14:00 +27°C° 0 mm 2 mps 617 mmHg 38%
    15:00 +27°C° 0 mm 2 mps 617 mmHg 37%
    16:00 +26°C° 0.1 mm 2 mps 616 mmHg 42%
    17:00 +25°C° 0.1 mm 2 mps 616 mmHg 46%
    18:00 +24°C° 0.1 mm 2 mps 616 mmHg 51%
    19:00 +21°C° 0.2 mm 2 mps 615 mmHg 59%
    20:00 +19°C° 0.2 mm 2 mps 615 mmHg 66%
    21:00 +17°C° 0.2 mm 2 mps 615 mmHg 74%
    22:00 +16°C° 0.1 mm 2 mps 615 mmHg 75%
    23:00 +16°C° 0.1 mm 2 mps 615 mmHg 76%

    Tomorrow, 19 August, Saturday

    Time Temperature Precipitation Wind Pressure Humidity
    00:00 +15°C° 0.1 mm 2 mps 615 mmHg 77%
    01:00 +15°C° 0 mm 2 mps 615 mmHg 78%
    02:00 +15°C° 0 mm 2 mps 615 mmHg 78%
    03:00 +14°C° 0 mm 2 mps 615 mmHg 79%
    04:00 +14°C° 0 mm 2 mps 615 mmHg 78%
    05:00 +14°C° 0 mm 2 mps 615 mmHg 77%
    06:00 +14°C° 0 mm 2 mps 615 mmHg 77%
    07:00 +17°C° 0 mm 2 mps 616 mmHg 67%
    08:00 +19°C° 0 mm 2 mps 617 mmHg 58%
    09:00 +21°C° 0 mm 2 mps 618 mmHg 48%
    10:00 +24°C° 0 mm 2 mps 618 mmHg 44%
    11:00 +25°C° 0 mm 2 mps 618 mmHg 40%
    12:00 +26°C° 0 mm 3 mps 619 mmHg 36%
    13:00 +27°C° 0 mm 3 mps 618 mmHg 36%
    14:00 +27°C° 0 mm 3 mps 618 mmHg 35%
    15:00 +28°C° 0 mm 3 mps 618 mmHg 34%
    16:00 +26°C° 0 mm 3 mps 618 mmHg 38%
    17:00 +25°C° 0 mm 3 mps 617 mmHg 42%
    18:00 +24°C° 0 mm 3 mps 617 mmHg 46%
    19:00 +21°C° 0 mm 2 mps 617 mmHg 51%
    20:00 +19°C° 0 mm 2 mps 616 mmHg 55%
    21:00 +17°C° 0 mm 2 mps 616 mmHg 59%
    22:00 +16°C° 0 mm 2 mps 616 mmHg 58%
    23:00 +16°C° 0 mm 2 mps 616 mmHg 58%

    Day after tomorrow, 20 August, Sunday

    Time Temperature Precipitation Wind Pressure Humidity
    00:00 +15°C° 0 mm 2 mps 616 mmHg 57%
    01:00 +15°C° 0 mm 2 mps 616 mmHg 57%
    02:00 +14°C° 0 mm 2 mps 616 mmHg 58%
    03:00 +14°C° 0 mm 2 mps 616 mmHg 59%
    04:00 +14°C° 0 mm 2 mps 616 mmHg 59%
    05:00 +14°C° 0 mm 2 mps 616 mmHg 59%
    06:00 +14°C° 0 mm 2 mps 616 mmHg 59%
    07:00 +16°C° 0 mm 2 mps 617 mmHg 52%
    08:00 +19°C° 0 mm 2 mps 617 mmHg 45%
    09:00 +23°C° 0 mm 2 mps 618 mmHg 38%
    10:00 +24°C° 0 mm 2 mps 618 mmHg 35%
    11:00 +25°C° 0 mm 2 mps 619 mmHg 32%
    12:00 +27°C° 0 mm 3 mps 619 mmHg 29%
    13:00 +27°C° 0 mm 3 mps 619 mmHg 28%
    14:00 +27°C° 0 mm 3 mps 618 mmHg 27%
    15:00 +28°C° 0 mm 3 mps 618 mmHg 27%
    16:00 +26°C° 0 mm 3 mps 618 mmHg 31%
    17:00 +25°C° 0 mm 2 mps 617 mmHg 36%
    18:00 +24°C° 0 mm 2 mps 616 mmHg 40%
    19:00 +21°C° 0 mm 2 mps 616 mmHg 44%
    20:00 +19°C° 0 mm 2 mps 616 mmHg 48%
    21:00 +16°C° 0 mm 2 mps 616 mmHg 53%
    22:00 +16°C° 0 mm 2 mps 616 mmHg 52%
    23:00 +16°C° 0 mm 2 mps 615 mmHg 52%

    21 August, Monday

    Time Temperature Precipitation Wind Pressure Humidity
    00:00 +15°C° 0 mm 2 mps 615 mmHg 52%
    01:00 +15°C° 0 mm 2 mps 615 mmHg 53%
    02:00 +14°C° 0 mm 2 mps 615 mmHg 53%
    03:00 +14°C° 0 mm 2 mps 615 mmHg 54%
    04:00 +14°C° 0 mm 2 mps 615 mmHg 55%
    05:00 +14°C° 0 mm 2 mps 615 mmHg 55%
    06:00 +14°C° 0 mm 2 mps 615 mmHg 56%
    07:00 +17°C° 0 mm 2 mps 616 mmHg 49%
    08:00 +20°C° 0 mm 2 mps 617 mmHg 42%
    09:00 +23°C° 0 mm 2 mps 617 mmHg 35%
    10:00 +25°C° 0 mm 2 mps 618 mmHg 32%
    11:00 +26°C° 0 mm 2 mps 618 mmHg 30%
    12:00 +28°C° 0 mm 2 mps 618 mmHg 27%
    13:00 +28°C° 0 mm 2 mps 618 mmHg 27%
    14:00 +29°C° 0 mm 3 mps 617 mmHg 26%
    15:00 +29°C° 0 mm 3 mps 617 mmHg 26%
    16:00 +27°C° 0 mm 2 mps 617 mmHg 30%
    17:00 +26°C° 0 mm 2 mps 616 mmHg 35%
    18:00 +25°C° 0 mm 2 mps 616 mmHg 40%
    19:00 +23°C° 0 mm 2 mps 615 mmHg 45%
    20:00 +20°C° 0 mm 2 mps 615 mmHg 50%
    21:00 +17°C° 0 mm 2 mps 615 mmHg 55%
    22:00 +17°C° 0 mm 2 mps 615 mmHg 55%
    23:00 +16°C° 0 mm 2 mps 615 mmHg 56%

    22 August, Tuesday

    Time Temperature Precipitation Wind Pressure Humidity
    00:00 +16°C° 0 mm 2 mps 615 mmHg 57%
    01:00 +16°C° 0 mm 2 mps 614 mmHg 57%
    02:00 +15°C° 0 mm 2 mps 614 mmHg 57%
    03:00 +15°C° 0 mm 2 mps 614 mmHg 57%
    04:00 +15°C° 0 mm 2 mps 614 mmHg 57%
    05:00 +15°C° 0 mm 1 mps 614 mmHg 57%
    06:00 +15°C° 0 mm 1 mps 614 mmHg 57%
    07:00 +18°C° 0 mm 2 mps 615 mmHg 49%
    08:00 +21°C° 0 mm 2 mps 616 mmHg 41%
    09:00 +25°C° 0 mm 2 mps 617 mmHg 33%
    10:00 +26°C° 0 mm 2 mps 617 mmHg 30%
    11:00 +28°C° 0 mm 2 mps 617 mmHg 27%
    12:00 +29°C° 0 mm 2 mps 617 mmHg 25%
    13:00 +29°C° 0 mm 2 mps 617 mmHg 24%
    14:00 +30°C° 0 mm 2 mps 617 mmHg 24%
    15:00 +30°C° 0 mm 2 mps 616 mmHg 23%
    16:00 +28°C° 0 mm 2 mps 616 mmHg 28%
    17:00 +27°C° 0 mm 2 mps 615 mmHg 33%
    18:00 +25°C° 0 mm 2 mps 615 mmHg 38%
    19:00 +23°C° 0 mm 2 mps 614 mmHg 43%
    20:00 +20°C° 0 mm 2 mps 614 mmHg 48%
    21:00 +18°C° 0 mm 2 mps 614 mmHg 53%
    22:00 +17°C° 0 mm 2 mps 614 mmHg 53%
    23:00 +17°C° 0 mm 2 mps 614 mmHg 54%

    23 August, Wednesday

    Time Temperature Precipitation Wind Pressure Humidity
    00:00 +16°C° 0 mm 2 mps 613 mmHg 54%
    01:00 +16°C° 0 mm 2 mps 613 mmHg 55%
    02:00 +16°C° 0 mm 2 mps 613 mmHg 55%
    03:00 +15°C° 0 mm 2 mps 613 mmHg 56%
    04:00 +15°C° 0 mm 2 mps 614 mmHg 56%
    05:00 +15°C° 0 mm 2 mps 614 mmHg 56%
    06:00 +15°C° 0 mm 2 mps 614 mmHg 56%
    07:00 +18°C° 0 mm 2 mps 615 mmHg 50%
    08:00 +21°C° 0 mm 2 mps 616 mmHg 43%
    09:00 +24°C° 0 mm 2 mps 617 mmHg 36%
    10:00 +26°C° 0 mm 2 mps 617 mmHg 34%
    11:00 +27°C° 0 mm 2 mps 617 mmHg 31%
    12:00 +28°C° 0 mm 2 mps 618 mmHg 28%
    13:00 +28°C° 0 mm 3 mps 617 mmHg 28%
    14:00 +29°C° 0 mm 3 mps 617 mmHg 28%
    15:00 +29°C° 0 mm 3 mps 617 mmHg 28%
    16:00 +27°C° 0 mm 3 mps 617 mmHg 32%
    17:00 +26°C° 0 mm 3 mps 616 mmHg 36%
    18:00 +24°C° 0 mm 3 mps 616 mmHg 40%
    19:00 +21°C° 0 mm 3 mps 616 mmHg 42%
    20:00 +19°C° 0 mm 3 mps 616 mmHg 44%
    21:00 +17°C° 0 mm 3 mps 616 mmHg 45%
    22:00 +17°C° 0 mm 3 mps 616 mmHg 46%
    23:00 +16°C° 0 mm 3 mps 615 mmHg 46%
    Show more